カタログに戻る

COSMOS 1083

運用中軍事LEO
NORAD 11298·PAYLOAD·🇷🇺 Russia

打ち上げ Mar 15, 1979 から Plesetsk Cosmodrome

Loading…

次のパス (今後24時間)

TLE

最新Source: Space-Track

元期: Sep 14, 2026, 13:22 UTC

1 11298U 79024C   26257.55695135 -.00000009  00000-0  43117-4 0  9994
2 11298  74.0310 106.9267 0014529 170.3097 218.1908 12.52617940172070

AllMySatでCOSMOS 1083をリアルタイム追跡

Download on the App Store